This is the latest recevied weather packets stored in our database for station/object K9VSK-9. If no packets are shown the sender has not sent any weather packets the latest 10 day(s).
| Time | Temp. | Humidity | Pressure | Rain* | Wind** | Luminosity | Snow |
|---|---|---|---|---|---|---|---|
| 1778261895 | 14.44° C | 84% | 1010.8 hPa | 0 mm | - | - | - |
| 1778261594 | 14.44° C | 85% | 1010.9 hPa | 0 mm | - | - | - |
| 1778261294 | 14.44° C | 85% | 1010.9 hPa | 0 mm | - | - | - |
| 1778260994 | 13.89° C | 85% | 1011 hPa | 0 mm | - | - | - |
| 1778260694 | 13.89° C | 86% | 1011 hPa | 0 mm | - | - | - |
| 1778260393 | 13.89° C | 87% | 1011.1 hPa | 0 mm | - | - | - |
| 1778260093 | 13.89° C | 90% | 1011.1 hPa | 0 mm | - | - | - |
| 1778259793 | 13.33° C | 89% | 1011.2 hPa | 0 mm | - | - | - |
| 1778259492 | 13.33° C | 90% | 1011.2 hPa | 0 mm | - | - | - |
| 1778259192 | 12.78° C | 90% | 1011.2 hPa | 1.02 mm | - | - | - |
| 1778258892 | 12.22° C | 90% | 1011.1 hPa | 1.27 mm | - | - | - |
| 1778258591 | 12.22° C | 90% | 1010.8 hPa | 1.27 mm | - | - | - |
| 1778258291 | 12.22° C | 89% | 1011 hPa | 0 mm | - | - | - |
| 1778257991 | 12.22° C | 88% | 1011.4 hPa | 0 mm | - | - | - |
| 1778257690 | 12.78° C | 87% | 1011.5 hPa | 0 mm | - | - | - |
| 1778257390 | 12.78° C | 85% | 1011.3 hPa | 0 mm | - | - | - |
| 1778257090 | 12.78° C | 83% | 1011.3 hPa | 0 mm | - | - | - |
| 1778256790 | 13.33° C | 81% | 1011.3 hPa | 0 mm | - | - | - |
| 1778256490 | 13.33° C | 79% | 1011.3 hPa | 0 mm | - | - | - |
| 1778256189 | 13.89° C | 78% | 1011.5 hPa | 0 mm | - | - | - |
| 1778255889 | 13.89° C | 76% | 1011.5 hPa | 0 mm | - | - | - |
| 1778255589 | 13.89° C | 76% | 1011.7 hPa | 0 mm | - | - | - |
| 1778255288 | 14.44° C | 76% | 1011.8 hPa | 0 mm | - | - | - |
| 1778254988 | 14.44° C | 75% | 1011.7 hPa | 0 mm | - | - | - |
| 1778254688 | 14.44° C | 75% | 1011.5 hPa | 0 mm | - | - | - |
* Rain latest hour (hover to see other rain measurements)
** Current wind speed in m/s (hover to see current wind gust speed)